Regional Weather Roundup
Issued by NWS

Home | Current Version | Previous Version | Text Only | Print | Product List | Glossary On
Versions: 1 2 3 4 5 6 7 8 9 10 11 12 13 14 15 16 17 18 19 20 21 22 23 24 25 26 27 28 29 30 31 32 33 34 35 36 37 38 39 40 41 42 43 44 45 46 47 48 49 50
000
ASUS43 KDTX 272110
RWRMI
MICHIGAN HOURLY REGIONAL WEATHER ROUNDUP
NATIONAL WEATHER SERVICE DETROIT/PONTIAC MI
500 PM EDT WED JUL 27 2016

NOTE: "FAIR" INDICATES FEW OR NO CLOUDS BELOW 12,000 FEET WITH NO
SIGNIFICANT WEATHER AND/OR OBSTRUCTION TO VISIBILITY.

MIZ047>049-052>055-059>063-066>070-074>076-081>083-272200-
SOUTHEAST LOWER MICHIGAN

CITY           SKY/WX    TMP DP  RH WIND       PRES   REMARKS
ADRIAN         MOSUNNY   87  60  40 SW7       29.96F
ALMA           LGT RAIN  70  67  90 N8        30.01R
ANN ARBOR      MOSUNNY   89  61  38 CALM      29.94F
BAD AXE        PTSUNNY   87  62  43 N7        29.94F
CARO           MOSUNNY   87  66  50 SW6       29.92S
DETROIT CITY   MOSUNNY   89  63  41 VRB5      29.93F HX  90
DETROIT        MOSUNNY   91  60  35 SW9       29.94F HX  90
FLINT          MOSUNNY   93  63  36 W10       29.95S HX  94
GROSSE ILE     SUNNY     85  65  51 S10       29.93F
HILLSDALE      MOSUNNY   86  64  48 W5        29.97F
HOWELL         MOSUNNY   88  60  39 NW7       29.96F

CITY           SKY/WX    TMP DP  RH WIND       PRES   REMARKS
JACKSON        SUNNY     86  62  44 VRB5      29.96F
LAMBERTVILLE   SUNNY     89  60  38 W7        29.95F
LANSING        MOSUNNY   87  64  46 W10       29.96F
LAPEER         FAIR      90  63  40 SW9       29.94F HX  90
MASON          PTSUNNY   87  63  45 SW5       29.96F
MONROE         SUNNY     87  66  50 SW8       29.94F
MT. CLEMENS    MOSUNNY   88  65  46 SE7       29.92S
PONTIAC        PTSUNNY   88  62  41 NW8       29.94F
PORT HOPE        N/A     77  69  76 NE6       29.93F
PORT HURON     SUNNY     86  66  51 W6        29.94S
TRI CITIES     CLOUDY    68  65  90 N7        30.00F
MIDLAND        RAIN      68  66  96 NW8       29.99R
TROY           SUNNY     91  54  28 SW7       29.95F
SAGINAW HB     LGT RAIN  68  63  83 NW23G37   29.98R
$$
MIZ043>046-050>051-056>058-064>065-071>073-077>080-272200-
SOUTHWEST LOWER MICHIGAN

CITY           SKY/WX    TMP DP  RH WIND       PRES   REMARKS
BATTLE CREEK   SUNNY     85  66  53 SW7       29.97F
BENTON HARBOR  SUNNY     83  64  52 VRB3      29.96F
BIG RAPIDS     PTSUNNY   69  69 100 SE5       30.00S
COLDWATER      SUNNY     86  61  43 W6        29.96F
FREMONT        FAIR      83  70  64 W8        29.97S
HOLLAND        CLOUDY    83  67  58 W6        29.97F
GRAND RAPIDS   PTSUNNY   86  66  51 W12       29.96F
IONIA          FAIR      86  65  49 W9        29.95F
KALAMAZOO      MOSUNNY   84  64  50 W7        29.96F
LUDINGTON      PTSUNNY   80  68  67 N6        29.95F
MARSHALL       SUNNY     87  61  40 W6        29.97S
MOUNT PLEASANT RAIN      70  67  89 N5        30.00S
MUSKEGON       CLOUDY    81  70  69 NW9       29.97F
SOUTH HAVEN    SUNNY     83  65  53 W5        29.97F
$$
MIZ016>042-272200-
NORTHERN LOWER MICHIGAN

CITY           SKY/WX    TMP DP  RH WIND       PRES   REMARKS
ALPENA         LGT RAIN  79  66  64 NE6       29.95S
BEAVER ISLAND  CLOUDY    74  68  82 N3        29.96S
BELLAIRE       PTSUNNY   80  64  58 CALM      29.95F
CADILLAC       MOSUNNY   79  67  67 W3        29.99R
CHARLEVOIX     MOSUNNY   77  66  67 N5        29.98F
FRANKFORT      PTSUNNY   81  64  55 W9        29.96R
GAYLORD        CLOUDY    80  58  46 NW8       29.98S
GRAYLING       CLOUDY    85  63  47 N10       29.97R
HARBOR SPRINGS CLOUDY    74  68  81 SW3       29.95F
HOUGHTON LAKE  CLOUDY    71  67  87 S8        29.99S
MANISTEE       SUNNY     86  65  49 NW7       29.95F
OSCODA         CLOUDY    74  68  81 N7        29.94F
PELLSTON       CLOUDY    78  65  63 NW8       29.95F
ROGERS CITY    PTSUNNY   75  64  69 NE3       29.96F
TRAVERSE CITY  PTSUNNY   83  63  50 E7        29.93F
$$
MIZ007>008-015-272200-
EASTERN UPPER MICHIGAN

CITY           SKY/WX    TMP DP  RH WIND       PRES   REMARKS
KINROSS        MOSUNNY   75  57  53 N9        29.97S
MACKINAC ISLAN CLOUDY    76  65  69 CALM      29.94F
NEWBERRY         N/A     79  55  44 N8        29.97S VSB 3/4
S. S. MARIE    MOSUNNY   78  55  44 NW8       29.96R
MUNISING         N/A     69  65  86 NE14      29.99S
$$
MIZ004>006-011>014-085-272200-
CENTRAL UPPER MICHIGAN

CITY           SKY/WX    TMP DP  RH WIND       PRES   REMARKS
MANISTIQUE     RAIN      70  67  90 N5        29.95F
ESCANABA       CLOUDY    79  64  61 NE8       29.95R
MENOMINEE      CLOUDY   N/A N/A N/A MISG        N/A
SAWYER-GWINN   PTSUNNY   66  59  77 NE12      30.02R
$$
MIZ001>003-009>011-084-272200-
WESTERN UPPER MICHIGAN

CITY           SKY/WX    TMP DP  RH WIND       PRES   REMARKS
IRON MOUNTAIN  CLOUDY    73  64  73 N5        29.99S
HOUGHTON       CLOUDY    68  57  68 E5        30.02S
IRONWOOD       CLOUDY    68  66  94 N9        30.00R
$$

ABBREVIATIONS USED IN REMARKS
   TC - TEMPERATURE IN CELSIUS
  WCI - WIND CHILL INDEX
   HX - HEAT INDEX
  VSB - VISIBILITY




USA.gov is the U.S. government's official web portal to all federal, state and local government web resources and services.